Regional Weather Roundup
Issued by NWS

Home | Current Version | Previous Version | Text Only | Print | Product List | Glossary Off
Versions: 1 2 3 4 5 6 7 8 9 10 11 12 13 14 15 16 17 18 19 20 21 22 23 24 25 26 27 28 29 30 31 32 33 34 35 36 37 38 39 40 41 42 43 44 45 46 47 48 49 50

000
ASUS43 KMPX 310201
RWRMN
WEATHER ROUNDUP FOR MINNESOTA
NATIONAL WEATHER SERVICE TWIN CITIES/CHANHASSEN MN
900 PM CDT MON MAY 30 2016


NOTE: "FAIR" INDICATES FEW OR NO CLOUDS BELOW 12,000 FEET WITH NO
SIGNIFICANT WEATHER AND/OR OBSTRUCTIONS TO VISIBILITY. N/A MEANS
CURRENT SKY AND/OR WEATHER CONDITIONS ARE NOT AVAILABLE.

MNZ060>063-068>070-310300-
   Twin Cities Metro

CITY           SKY/WX    TMP DP  RH WIND       PRES   REMARKS
TWIN CITIES    MOCLDY    77  52  41 SE13      29.89R
ST PAUL        PTCLDY    75  54  47 SE8       29.89S
CRYSTAL        PTCLDY    77  49  37 E8        29.87S
BLAINE         MOCLDY    75  52  43 E6        29.89R
EDEN PRAIRIE   PTCLDY    77  50  38 SE10      29.87S
SOUTH ST PAUL  PTCLDY    77  51  40 SE6       29.89S
LAKE ELMO      FAIR      73  55  53 E6        29.91S
$$
MNZ001>005-007-008-013>017-022>024-027-028-310300-
   Northwest Minnesota

CITY           SKY/WX    TMP DP  RH WIND       PRES   REMARKS
BEMIDJI        CLOUDY    64  55  72 E7        29.87S
HALLOCK        LGT RAIN  64  59  82 MISG      29.86S
ROSEAU         CLOUDY    66  55  68 E13       29.89F
WARROAD        CLOUDY    64  57  77 NE17      29.91F
THIEF RVR FALL CLOUDY    64  52  63 NE12      29.86F
CROOKSTON      CLOUDY    63  57  82 N9        29.83S
FOSSTON        CLOUDY    66  54  63 E9        29.84F
DETROIT LAKES  CLOUDY    72  54  53 SE12G18   29.83S
MOORHEAD       CLOUDY    72  57  60 E9        29.76F
PARK RAPIDS    CLOUDY    72  52  49 E10       29.86F
MAHNOMEN       FAIR      70  55  57 E9        29.82S
$$
MNZ006-009>011-018-025>026-310300-
   North Central Minnesota

CITY           SKY/WX    TMP DP  RH WIND       PRES   REMARKS
BAUDETTE       CLOUDY    66  48  52 E9        29.91R
FLAG ISLAND    MOCLDY    64  50  59 E9        29.93R
INTL FALLS     CLOUDY    66  49  54 E12       29.94R
WASKISH        CLOUDY    70  52  52 NE10      29.89S
BIG FORK       PTCLDY    64  54  68 CALM      29.92S
LONGVILLE      CLOUDY    59  57  94 CALM      29.90S
GRAND RAPIDS   CLOUDY    66  54  65 CALM      29.92F
CRANE LAKE     CLOUDY    64  48  55 NE5       29.98R
ORR            CLOUDY    61  46  59 CALM      29.93S
COOK           PTCLDY    64  48  55 CALM      29.95S
WALKER         FAIR      65  56  72 E5        29.88S
$$
MNZ012-019>021-037-310300-
   Northeast Minnesota

CITY           SKY/WX    TMP DP  RH WIND       PRES   REMARKS
DULUTH         CLOUDY    68  46  45 SE9       29.95R
ELY            CLOUDY    66  45  45 NE5       29.97R
HIBBING        CLOUDY    67  50  54 E3        29.93R
EVELETH        CLOUDY    64  48  55 CALM      29.96R
DULUTH HARBOR  CLOUDY    57  48  72 CALM      29.94S
TWO HARBORS    PTCLDY    70  52  52 E5        29.93R
SILVER BAY     CLEAR     64  46  52 N3        29.94R
GRAND MARAIS     N/A     61  44  53 NE17G24   29.99R
G MARAIS ARPRT PTCLDY    61  46  59 E8        30.03R
$$
MNZ029>031-032-039>041-046>048-054>057-064-310300-
   West Central Minnesota

CITY           SKY/WX    TMP DP  RH WIND       PRES   REMARKS
FERGUS FALLS   MOCLDY    70  59  68 E8        29.75F
WHEATON        PTCLDY    81  55  41 SE9       29.78R
MORRIS         PTCLDY    77  54  44 SE10      29.79R
ALEXANDRIA     PTCLDY    74  52  46 SE12      29.84S
ELBOW LAKE     MOCLDY    73  57  57 SE10      29.79F
WADENA         CLOUDY    72  54  53 SE8       29.84S
GLENWOOD       PTCLDY    73  54  49 E10       29.84F
APPLETON       PTCLDY    81  52  36 SE10      29.78R
ORTONVILLE     CLEAR     75  54  46 SE3       29.77R
MADISON        CLOUDY    75  52  43 S7        29.78R
WILLMAR        FAIR      75  57  53 SE13      29.83S
$$
MNZ033>034-036-042>043-049>051-058-059-310300-
   Central Minnesota

CITY           SKY/WX    TMP DP  RH WIND       PRES   REMARKS
ST CLOUD       CLOUDY    75  52  44 E5        29.87R
SAUK CENTRE    FAIR      72  52  49 E7        29.85S
PAYNESVILLE    PTCLDY    74  50  42 E8        29.85S
AITKIN         CLEAR     70  50  49 E3        29.89S
PINE RIVER     PTCLDY    66  55  68 E6        29.91F
BRAINERD       PTCLDY    71  53  52 CALM      29.88F
STAPLES        PTCLDY    72  52  49 E3        29.86S
LONG PRAIRIE   FAIR      72  52  49 E10       29.86S
LITTLE FALLS   PTCLDY    72  52  49 E6        29.87S
LITCHFIELD     PTCLDY    73  55  53 E9        29.86S
BUFFALO        PTCLDY    73  53  49 E6        29.88S
MAPLE LAKE     CLOUDY    76  55  47 E3        29.88R
HUTCHINSON     CLOUDY    74  58  58 E8        29.86S
$$
MNZ037-044-045-052-053-310300-
   East Central Minnesota

CITY           SKY/WX    TMP DP  RH WIND       PRES   REMARKS
PRINCETON      CLOUDY    73  55  53 E3        29.88S
MORA           PTCLDY    70  55  60 CALM      29.91S
CAMBRIDGE        N/A     75  57  53 E3        29.88S
RUSH CITY      MOCLDY    69  55  60 SE3       29.90S
MOOSE LAKE     CLOUDY    64  54  68 CALM      29.91R
HINCKLEY       FAIR      68  63  83 E3        29.91S
CLOQUET        MOCLDY    66  52  59 CALM      29.93S
MCGREGOR       PTCLDY    64  52  63 E5        29.92S
$$
MNZ071>073-080-081-089-090-097-098-310300-
   Southwest Minnesota

CITY           SKY/WX    TMP DP  RH WIND       PRES   REMARKS
MONTEVIDEO     MOCLDY    77  57  50 S9        29.81S
GRANITE FALLS  CLOUDY    81  58  44 SE14G20   29.81S
CANBY          CLOUDY    80  56  44 S6        29.80S
MARSHALL       CLOUDY    76  55  48 SE9       29.80S
REDWOOD FALLS  CLEAR     78  57  48 SE8       29.82R
OLIVIA         PTCLDY    79  55  44 SE9       29.83R
PIPESTONE      CLOUDY    75  54  46 SE7       29.81F
WINDOM         CLEAR     75  57  53 CALM      29.83S
WORTHINGTON    CLEAR     76  55  48 S8        29.83F
JACKSON        CLEAR     75  54  46 SE21G26   29.86R
TRACY          CLOUDY    76  56  49 S5        29.82S
SLAYTON        CLOUDY    73  54  49 SE8       29.83S
$$
MNZ065>067-074>077-082>085-091>093-310300-
   South Central Minnesota

CITY           SKY/WX    TMP DP  RH WIND       PRES   REMARKS
MANKATO        PTCLDY    75  55  50 SE10      29.86S
NEW ULM        PTCLDY    75  57  53 SE8       29.84S
ST JAMES       CLEAR     72  50  46 SE16      29.85R
FAIRMONT       PTCLDY    72  57  60 SE24G30   29.86S
GLENCOE        MOCLDY    74  60  61 E8        29.86R
FARIBAULT      MOCLDY    73  55  53 E6        29.89S
OWATONNA       PTCLDY    75  55  50 SE9       29.90S
WASECA         MOCLDY    73  55  53 SE8       29.90S
ALBERT LEA     CLOUDY    72  55  56 S12       29.91S
$$
MNZ078>079-086>088-094>096-310300-
   Southeast Minnesota

CITY           SKY/WX    TMP DP  RH WIND       PRES   REMARKS
ROCHESTER      CLOUDY    72  56  57 SE10      29.93S
RED WING       CLOUDY    73  54  49 E6        29.90S
STANTON        CLOUDY    76  50  40 E6        29.89R
DODGE CENTER   CLOUDY    73  54  49 SE10      29.92S
WINONA         CLOUDY    73  55  53 SE3       29.93S
AUSTIN         DRIZZLE   68  61  77 S10G16    29.94R
PRESTON        CLOUDY    73  53  50 SE6       29.94S
$$
ABBREVIATIONS USED IN REMARKS
   TC - TEMPERATURES IN CELSIUS
  WCI - WIND CHILL INDEX
   HX - HEAT INDEX
  VSB - VISIBILITY
$$




USA.gov is the U.S. government's official web portal to all federal, state and local government web resources and services.